This is the latest recevied weather packets stored in our database for station/object KC5TXI. If no packets are shown the sender has not sent any weather packets the latest 10 day(s).
| Time | Temp. | Humidity | Pressure | Rain* | Wind** | Luminosity | Snow |
|---|---|---|---|---|---|---|---|
| 1787611694 | 41.67° C | 22% | 1012.6 hPa | 0 mm | - | 180 W/m² | - |
| 1787611390 | 41.67° C | 21% | 1012.8 hPa | 0 mm | - | 283 W/m² | - |
| 1787611085 | 42.22° C | 22% | 1012.7 hPa | 0 mm | - | 300 W/m² | - |
| 1787610781 | 42.22° C | 21% | 1012.6 hPa | 0 mm | - | 292 W/m² | - |
| 1787610476 | 42.78° C | 21% | 1012.7 hPa | 0 mm | - | 288 W/m² | - |
| 1787610175 | 42.78° C | 21% | 1012.6 hPa | 0 mm | - | 314 W/m² | - |
| 1787609875 | 42.22° C | 21% | 1012.7 hPa | 0 mm | - | 330 W/m² | - |
| 1787609569 | 42.22° C | 21% | 1012.7 hPa | 0 mm | - | 349 W/m² | - |
| 1787609269 | 42.78° C | 22% | 1012.7 hPa | 0 mm | - | 361 W/m² | - |
| 1787608963 | 42.78° C | 21% | 1012.7 hPa | 0 mm | - | 395 W/m² | - |
| 1787608658 | 43.33° C | 21% | 1012.5 hPa | 0 mm | - | 407 W/m² | - |
| 1787608353 | 43.33° C | 21% | 1012.6 hPa | 0 mm | - | 422 W/m² | - |
| 1787608050 | 42.78° C | 22% | 1012.7 hPa | 0 mm | - | 436 W/m² | - |
| 1787607746 | 43.33° C | 21% | 1012.9 hPa | 0 mm | - | 431 W/m² | - |
| 1787607443 | 43.33° C | 22% | 1013.1 hPa | 0 mm | - | 428 W/m² | - |
| 1787607139 | 42.78° C | 22% | 1013 hPa | 0 mm | - | 442 W/m² | - |
| 1787606834 | 42.78° C | 22% | 1013 hPa | 0 mm | - | 449 W/m² | - |
| 1787605021 | 43.33° C | 23% | 1013.4 hPa | 0 mm | - | 510 W/m² | - |
| 1787604721 | 43.33° C | 23% | 1013.4 hPa | 0 mm | - | 510 W/m² | - |
| 1787604416 | 43.89° C | 23% | 1013.6 hPa | 0 mm | - | 505 W/m² | - |
| 1787604110 | 43.33° C | 24% | 1013.6 hPa | 0 mm | - | 531 W/m² | - |
| 1787603809 | 43.89° C | 23% | 1013.5 hPa | 0 mm | - | 532 W/m² | - |
| 1787603505 | 42.78° C | 24% | 1013.6 hPa | 0 mm | - | 573 W/m² | - |
| 1787603200 | 42.78° C | 24% | 1013.8 hPa | 0 mm | - | 573 W/m² | - |
| 1787602897 | 43.33° C | 24% | 1013.8 hPa | 0 mm | - | 575 W/m² | - |
* Rain latest hour (hover to see other rain measurements)
** Current wind speed in m/s (hover to see current wind gust speed)